Regional Weather Roundup
Issued by NWS

Home | Current Version | Previous Version | Graphics & Text | Print | Product List | Glossary On
Versions: 1 2 3 4 5 6 7 8 9 10 11 12 13 14 15 16 17 18 19 20 21 22 23 24 25 26 27 28 29 30 31 32 33 34 35 36 37 38 39 40 41 42 43 44 45 46 47 48 49 50
534
ASUS45 KABQ 241310
RWRNM
NEW MEXICO REGIONAL WEATHER ROUNDUP
NATIONAL WEATHER SERVICE ALBUQUERQUE NM
600 AM MST FRI FEB 24 2017

NOTE: "FAIR" MEANS FEW OR NO CLOUDS BELOW 12,000 FEET AGL WITH NO
       SIGNIFICANT WEATHER OR OBSTRUCTIONS TO VISION.

      THIS PRODUCT IS RELEASED AS TWO VERSIONS.  ONE VERSION NEAR
      THE TOP OF THE HOUR CONTAINING PRELIMINARY DATA FROM ALBUQUERQUE
      AND OTHER STATIONS.  A FINAL VERSION WITH ADDITIONAL DATA IS
      ISSUED ABOUT 10 MINUTES AFTER THE HOUR.

NMZ501-503-504-510>518-241400-
NORTHWEST PLATEAU/NORTHCENTRAL MOUNTAINS

CITY           SKY/WX    TMP DP  RH WIND       PRES   REMARKS
FARMINGTON     CLOUDY    26  13  57 W8        29.88R WCI  18
LOS ALAMOS     FAIR      23  13  65 W6        29.84R WCI  16
SANTA FE       FAIR      22  10  60 CALM      29.85R
TAOS           FAIR      19   1  45 SW7       29.82R WCI  10
ANGEL FIRE     CLOUDY    18   6  58 W5        29.77R WCI  11

$$
NMZ402-403-502-505>509-241400-
WESTCENTRAL MOUNTAINS/SOUTHWEST MOUNTAINS

CITY           SKY/WX    TMP DP  RH WIND       PRES   REMARKS
GALLUP         FAIR      21   6  52 SW6       29.94R WCI  13
GRANTS         FAIR      20   9  62 NW8       29.92R WCI  10
SILVER CITY    FAIR      29  13  52 W5        29.97R WCI  24

$$
NMZ407-409-411-412-241400-
SOUTHERN DESERTS

CITY           SKY/WX    TMP DP  RH WIND       PRES   REMARKS
DEMING         FAIR      34  15  46 W6        30.00R WCI  29
LAS CRUCES     FAIR      35  12  38 W12       29.96R WCI  27
HOLLOMAN AFB   FAIR      38   9  30 W10       29.96R WCI  31
ALAMOGORDO     FAIR      39   7  26 S5        29.95R
T OR C         FAIR      36   7  29 NW12      29.93R WCI  28

$$
NMZ519>523-241400-
CENTRAL VALLEYS/CENTRAL HIGHLANDS

CITY           SKY/WX    TMP DP  RH WIND       PRES   REMARKS
ALBUQUERQUE    FAIR      32  18  56 NW7       29.92R WCI  26
MORIARTY ARPT  FAIR      25  16  67 W8        29.88R WCI  17
CLINES CORNERS FAIR      21  12  68 W15       29.85R WCI   8
BELEN          MOCLDY    32  16  51 W10       29.94R WCI  24
SOCORRO        FAIR      36  10  34 W12       29.94R WCI  28

$$
NMZ524>526-539-540-241400-
SOUTHCENTRAL MOUNTAINS

CITY           SKY/WX    TMP DP  RH WIND       PRES   REMARKS
RUIDOSO        FAIR      28  -4  24 W12G18    29.90R WCI  18

$$
NMZ527>531-241400-
NORTHEAST HIGHLANDS/NORTHEAST PLAINS

CITY           SKY/WX    TMP DP  RH WIND       PRES   REMARKS
LAS VEGAS      FAIR      24   4  42 NW5       29.80R WCI  18
RATON          FAIR      11   5  77 NE12      29.77R WCI  -3
CLAYTON        FAIR      20  15  81 N9        29.84R WCI   9

$$
NMZ532>537-241400-
EASTCENTRAL PLAINS

CITY           SKY/WX    TMP DP  RH WIND       PRES   REMARKS
TUCUMCARI      FAIR      24  21  88 NE5       29.87R WCI  18
CANNON AFB     FAIR      25  25 100 CALM      29.86R
CLOVIS AIRPORT FAIR      25  19  80 N6        29.86R WCI  18

$$
NMZ028-029-538-241400-
SOUTHEAST PLAINS

CITY           SKY/WX    TMP DP  RH WIND       PRES   REMARKS
ROSWELL        FAIR      42   4  20 NW8         N/A
ARTESIA        FAIR      36   7  30 NE6       29.89R WCI  31
CARLSBAD       FAIR      52   8  17 W25G38    29.83R
HOBBS          CLEAR     32   9  37 NW7       29.88R WCI  26


$$




USA.gov is the U.S. government's official web portal to all federal, state and local government web resources and services.